Starlink 32814

operational
NORAD ID: 62871 Int'l Des: 2025-022 Owner: SPXS Country: US Constellation: starlink
LEOCIRCULAR

Über Starlink 32814

Beschreibung wird geladen...

Live-Position

3D-Globus wird geladen...

Nächste Überflüge

Höhenverlauf

Altitude vs Time

uPlot chart will show altitude changes over time

Zweizeiliger Elementsatz

1 62871U 25022T 26033.12231119 .00029799 00000-0 10140-2 0 9993
2 62871 53.1593 294.8944 0001346 88.8344 271.2811 15.30206933 56455
Epoch: 2. Feb. 2026 • Age: 25 hours

Aktueller Status

Höhe 491.1 km
Geschwindigkeit 7.62 km/s
Subsatellitenpunkt -45.06°S, 27.41°W
Startdatum 2. Feb. 2025
Alter 0.9 years
Typ internet

Technische Details

Klassifizierung Payload
Masse 730.00 kg
Trockenmasse 700.00 kg
Gesamtmasse 730.00 kg
Länge 0.30 m
Durchmesser 4.10 m
Spannweite 29.00 m
Form Box + pan
Hersteller SPXS
Bus-Typ Starlink V2M
Phasenstatus In Orbit
Besitzer/Staat SPXS/US

Große Konstellationen

Loading constellations...